Location: *
(46.4833°N, 7.6667°E)
Time: 04:12:45
(UTC+00:00)

STARLINK-1033 - Pass Details

Date: 27 February 2020
Orbit: 548 x 551 km, 53.0° (Epoch: 31 March)

Event Time Altitude Azimuth Distance (km) Brightness Sun altitude
Rises 16:39:53 0° 226° (SW) 2,704 8.4 4.4°
Reaches altitude 10° 16:42:07 10° 222° (SW) 1,814 7.4 4.1°
Maximum altitude 16:46:10 57° 143° (SE) 645 4.0 3.4°
Drops below altitude 10° 16:50:14 10° 65° (ENE) 1,824 5.7 2.7°
Enters shadow 16:53:17 -3° 61° (ENE) 3,038 6.8 2.2°
Exits shadow 17:28:09 -75° 64° (ENE) 12,905 10.4 -3.7°
